^^
Saratoga-Weather Station Historical Data
Daily Summary for February 1, 2020 Units:  Metric    English   Both
Daily Weekly Monthly Yearly Custom
  High: Low: Average:
Temperature: 20.3 °C °C 16 °C
Dew Point: 13.6 °C °C 12.4 °C
Humidity: 92% % 80%
Wind Speed: 14.5km/h 0km/h 3.2km/h
Wind Gust: 16.1km/h - -
Wind- - SW
Pressure: 1017.6 hPa 1014.9 hPa -
Precipitation: 2.3 mm    
Historical Graphs
 
 
Tabular Data for February 1, 2020
Time Temperature Dew Point Pressure Wind Wind Speed Wind Gust Humidity Rainfall Rate (Hourly) solar
00:03 15.5 °C 12.3 °C 1017.3 hPa NNW 3.2 km/h 3.2 km/h 81% 0.0 mm 0 W/m2
00:08 15.4 °C 12.2 °C 1017.3 hPa West 6.4 km/h 6.4 km/h 81% 0.0 mm 0 W/m2
00:13 15.4 °C 12.2 °C 1017.6 hPa WNW 3.2 km/h 4.8 km/h 81% 0.0 mm 0 W/m2
00:18 15.4 °C 12.2 °C 1017.3 hPa WNW 1.4 km/h 3.2 km/h 81% 0.0 mm 0 W/m2
00:23 15.4 °C 12.2 °C 1017.3 hPa WNW 6.4 km/h 12.9 km/h 81% 0.0 mm 0 W/m2
00:28 15.3 °C 12.1 °C 1017.3 hPa North 3.2 km/h 6.4 km/h 81% 0.0 mm 0 W/m2
00:33 15.3 °C 12.1 °C 1017.3 hPa WNW 3.2 km/h 12.9 km/h 81% 0.0 mm 0 W/m2
00:38 15.3 °C 12.1 °C 1017.3 hPa North 1.4 km/h 6.4 km/h 81% 0.0 mm 0 W/m2
00:43 15.2 °C 11.8 °C 1017.3 hPa East 1.4 km/h 6.4 km/h 80% 0.0 mm 0 W/m2
00:48 15.2 °C 11.8 °C 1017.3 hPa WSW 4.7 km/h 9.7 km/h 80% 0.0 mm 0 W/m2
00:53 15.2 °C 11.8 °C 1017.3 hPa Calm   4.8 km/h 80% 0.0 mm 0 W/m2
00:58 15.1 °C 11.9 °C 1017.3 hPa NW 3.2 km/h 8 km/h 81% 0.0 mm 0 W/m2
01:03 15 °C 11.8 °C 1017.3 hPa NNW 3.2 km/h 6.4 km/h 81% 0.0 mm 0 W/m2
01:08 14.9 °C 11.7 °C 1017.3 hPa WNW 4.7 km/h 11.3 km/h 81% 0.0 mm 0 W/m2
01:13 14.9 °C 11.7 °C 1017.3 hPa West 1.4 km/h 6.4 km/h 81% 0.0 mm 0 W/m2
01:18 14.8 °C 11.6 °C 1017.3 hPa WNW 3.2 km/h 14.5 km/h 81% 0.0 mm 0 W/m2
01:23 14.8 °C 11.6 °C 1017.3 hPa NNW 4.7 km/h 6.4 km/h 81% 0.0 mm 0 W/m2
01:28 14.8 °C 11.6 °C 1017.3 hPa West 3.2 km/h 14.5 km/h 81% 0.0 mm 0 W/m2
01:33 14.8 °C 11.6 °C 1017.3 hPa NW 3.2 km/h 3.2 km/h 81% 0.0 mm 0 W/m2
01:38 14.8 °C 11.8 °C 1017.3 hPa ESE 1.4 km/h 4.8 km/h 82% 0.0 mm 0 W/m2
01:43 14.7 °C 11.7 °C 1017.3 hPa WNW 3.2 km/h 6.4 km/h 82% 0.0 mm 0 W/m2
01:48 14.8 °C 11.8 °C 1017.3 hPa NNW 3.2 km/h 8 km/h 82% 0.0 mm 0 W/m2
01:53 14.7 °C 11.7 °C 1017.3 hPa Calm   4.8 km/h 82% 0.0 mm 0 W/m2
01:58 14.7 °C 11.7 °C 1017.3 hPa North 1.4 km/h 4.8 km/h 82% 0.0 mm 0 W/m2
02:03 14.7 °C 11.7 °C 1017.3 hPa WNW 3.2 km/h 6.4 km/h 82% 0.0 mm 0 W/m2
02:08 14.7 °C 11.7 °C 1017.3 hPa WNW 1.4 km/h 4.8 km/h 82% 0.0 mm 0 W/m2
02:13 14.7 °C 11.5 °C 1017.3 hPa WNW 4.7 km/h 6.4 km/h 81% 0.0 mm 0 W/m2
02:18 14.7 °C 11.7 °C 1017.3 hPa North 3.2 km/h 8 km/h 82% 0.0 mm 0 W/m2
02:23 14.6 °C 11.4 °C 1017.3 hPa West 6.4 km/h 8 km/h 81% 0.0 mm 0 W/m2
02:28 14.6 °C 11.6 °C 1017.3 hPa NW 3.2 km/h 4.8 km/h 82% 0.0 mm 0 W/m2
02:33 14.4 °C 11.4 °C 1016.9 hPa North 1.4 km/h 8 km/h 82% 0.0 mm 0 W/m2
02:38 14.4 °C 11.4 °C 1017.3 hPa West 3.2 km/h 6.4 km/h 82% 0.0 mm 0 W/m2
02:43 14.3 °C 11.5 °C 1016.9 hPa NW 1.4 km/h 8 km/h 83% 0.0 mm 0 W/m2
02:48 14.2 °C 11.4 °C 1016.9 hPa NW 4.7 km/h 4.8 km/h 83% 0.0 mm 0 W/m2
02:53 14.2 °C 11.5 °C 1016.9 hPa WNW 4.7 km/h 11.3 km/h 84% 0.0 mm 0 W/m2
02:58 14.2 °C 11.5 °C 1016.9 hPa WSW 4.7 km/h 4.8 km/h 84% 0.0 mm 0 W/m2
03:03 14.2 °C 11.5 °C 1016.9 hPa West 3.2 km/h 11.3 km/h 84% 0.0 mm 0 W/m2
03:08 14.2 °C 11.5 °C 1016.9 hPa NW 1.4 km/h 8 km/h 84% 0.0 mm 0 W/m2
03:13 14.2 °C 11.5 °C 1016.9 hPa NW 1.4 km/h 3.2 km/h 84% 0.0 mm 0 W/m2
03:18 14.2 °C 11.5 °C 1016.9 hPa WNW 1.4 km/h 8 km/h 84% 0.0 mm 0 W/m2
03:23 14.2 °C 11.5 °C 1016.9 hPa NNW 3.2 km/h 4.8 km/h 84% 0.0 mm 0 W/m2
03:28 14.2 °C 11.5 °C 1016.9 hPa West 3.2 km/h 4.8 km/h 84% 0.0 mm 0 W/m2
03:33 14.2 °C 11.7 °C 1016.9 hPa NW 1.4 km/h 6.4 km/h 85% 0.0 mm 0 W/m2
03:38 14.1 °C 11.6 °C 1016.9 hPa North 4.7 km/h 4.8 km/h 85% 0.0 mm 0 W/m2
03:44 14.1 °C 11.6 °C 1016.9 hPa North 3.2 km/h 6.4 km/h 85% 0.0 mm 0 W/m2
03:49 14.1 °C 11.6 °C 1016.9 hPa Calm   1.6 km/h 85% 0.0 mm 0 W/m2
03:54 14.1 °C 11.6 °C 1016.9 hPa West 3.2 km/h 4.8 km/h 85% 0.0 mm 0 W/m2
03:59 14.1 °C 11.6 °C 1016.9 hPa West 3.2 km/h 4.8 km/h 85% 0.0 mm 0 W/m2
04:04 14 °C 11.5 °C 1016.9 hPa WNW 3.2 km/h 3.2 km/h 85% 0.0 mm 0 W/m2
04:09 14 °C 11.7 °C 1016.9 hPa Calm   3.2 km/h 86% 0.0 mm 0 W/m2
04:14 14 °C 11.7 °C 1016.9 hPa WNW 4.7 km/h 11.3 km/h 86% 0.0 mm 0 W/m2
04:19 13.9 °C 11.6 °C 1016.9 hPa West 3.2 km/h 4.8 km/h 86% 0.0 mm 0 W/m2
04:24 13.9 °C 11.6 °C 1016.9 hPa WNW 3.2 km/h 9.7 km/h 86% 0.0 mm 0 W/m2
04:29 13.9 °C 11.6 °C 1016.9 hPa NW 1.4 km/h 3.2 km/h 86% 0.0 mm 0 W/m2
04:34 13.9 °C 11.6 °C 1016.9 hPa Calm   4.8 km/h 86% 0.0 mm 0 W/m2
04:39 13.9 °C 11.6 °C 1016.9 hPa WNW 1.4 km/h 3.2 km/h 86% 0.0 mm 0 W/m2
04:44 13.9 °C 11.6 °C 1016.9 hPa WNW 4.7 km/h 6.4 km/h 86% 0.0 mm 0 W/m2
04:49 13.9 °C 11.6 °C 1016.9 hPa NW 1.4 km/h 4.8 km/h 86% 0.0 mm 0 W/m2
04:55 13.9 °C 11.6 °C 1016.9 hPa West 1.4 km/h 4.8 km/h 86% 0.0 mm 0 W/m2
05:03 13.9 °C 11.6 °C 1016.6 hPa NNW 1.4 km/h 4.8 km/h 86% 0.0 mm 0 W/m2
05:08 13.9 °C 11.6 °C 1016.6 hPa Calm   6.4 km/h 86% 0.0 mm 0 W/m2
05:13 13.9 °C 11.8 °C 1016.6 hPa West 6.4 km/h 6.4 km/h 87% 0.0 mm 0 W/m2
05:18 13.9 °C 11.8 °C 1016.6 hPa WNW 3.2 km/h 4.8 km/h 87% 0.0 mm 0 W/m2
05:23 13.8 °C 11.7 °C 1016.6 hPa NNE 1.4 km/h 6.4 km/h 87% 0.0 mm 0 W/m2
05:28 13.8 °C 11.7 °C 1016.6 hPa NW 1.4 km/h 4.8 km/h 87% 0.0 mm 0 W/m2
05:34 13.8 °C 11.7 °C 1016.6 hPa NNW 1.4 km/h 6.4 km/h 87% 0.0 mm 0 W/m2
05:39 13.8 °C 11.7 °C 1016.6 hPa NW 1.4 km/h 4.8 km/h 87% 0.0 mm 0 W/m2
05:44 13.8 °C 11.7 °C 1016.6 hPa WNW 3.2 km/h 3.2 km/h 87% 0.0 mm 0 W/m2
05:49 13.8 °C 11.7 °C 1016.6 hPa NE 3.2 km/h 4.8 km/h 87% 0.0 mm 0 W/m2
05:54 13.8 °C 11.7 °C 1016.6 hPa Calm   3.2 km/h 87% 0.0 mm 0 W/m2
05:59 13.8 °C 11.7 °C 1016.3 hPa ENE 6.4 km/h 8 km/h 87% 0.0 mm 0 W/m2
06:04 13.8 °C 11.7 °C 1016.6 hPa NNW 1.4 km/h 4.8 km/h 87% 0.0 mm 0 W/m2
06:09 13.8 °C 11.7 °C 1016.6 hPa Calm   1.6 km/h 87% 0.0 mm 0 W/m2
06:14 13.8 °C 11.7 °C 1016.6 hPa Calm   1.6 km/h 87% 0.0 mm 0 W/m2
06:19 13.8 °C 11.7 °C 1016.6 hPa West 1.4 km/h 3.2 km/h 87% 0.0 mm 0 W/m2
06:24 13.7 °C 11.7 °C 1016.6 hPa Calm   3.2 km/h 88% 0.0 mm 0 W/m2
06:29 13.7 °C 11.7 °C 1016.6 hPa Calm   3.2 km/h 88% 0.0 mm 0 W/m2
06:34 13.7 °C 11.7 °C 1016.6 hPa Calm   6.4 km/h 88% 0.0 mm 0 W/m2
06:39 13.7 °C 11.7 °C 1016.3 hPa ENE 1.4 km/h 3.2 km/h 88% 0.0 mm 0 W/m2
06:44 13.7 °C 11.7 °C 1016.6 hPa Calm   6.4 km/h 88% 0.0 mm 0 W/m2
06:49 13.7 °C 11.7 °C 1016.6 hPa Calm   1.6 km/h 88% 0.0 mm 0 W/m2
06:54 13.7 °C 11.7 °C 1016.6 hPa Calm   3.2 km/h 88% 0.0 mm 0 W/m2
06:59 13.7 °C 11.7 °C 1016.6 hPa Calm   1.6 km/h 88% 0.0 mm 7 W/m2
07:04 13.7 °C 11.7 °C 1016.6 hPa NNE 3.2 km/h 4.8 km/h 88% 0.0 mm 11 W/m2
07:09 13.6 °C 11.6 °C 1016.6 hPa North 1.4 km/h 3.2 km/h 88% 0.0 mm 16 W/m2
07:14 13.6 °C 11.6 °C 1016.6 hPa Calm   4.8 km/h 88% 0.0 mm 21 W/m2
07:19 13.6 °C 11.6 °C 1016.6 hPa NNE 1.4 km/h 9.7 km/h 88% 0.0 mm 25 W/m2
07:24 13.6 °C 11.6 °C 1016.6 hPa WNW 3.2 km/h 3.2 km/h 88% 0.0 mm 26 W/m2
07:29 13.6 °C 11.6 °C 1016.6 hPa North 1.4 km/h 6.4 km/h 88% 0.0 mm 28 W/m2
07:34 13.6 °C 11.6 °C 1016.9 hPa ENE 1.4 km/h 1.6 km/h 88% 0.0 mm 32 W/m2
07:39 13.7 °C 11.7 °C 1016.9 hPa Calm   1.6 km/h 88% 0.0 mm 37 W/m2
07:44 13.7 °C 11.7 °C 1016.9 hPa WSW 1.4 km/h 4.8 km/h 88% 0.0 mm 37 W/m2
07:49 13.7 °C 11.7 °C 1016.9 hPa NNE 3.2 km/h 3.2 km/h 88% 0.0 mm 33 W/m2
07:54 13.8 °C 11.8 °C 1016.9 hPa ENE 3.2 km/h 3.2 km/h 88% 0.0 mm 33 W/m2
07:59 13.8 °C 11.8 °C 1016.9 hPa SSE 1.4 km/h 1.6 km/h 88% 0.0 mm 33 W/m2
08:05 13.8 °C 11.8 °C 1016.9 hPa NW 1.4 km/h 8 km/h 88% 0.0 mm 37 W/m2
08:10 13.9 °C 11.9 °C 1016.9 hPa Calm   4.8 km/h 88% 0.0 mm 46 W/m2
08:15 13.9 °C 11.9 °C 1016.9 hPa Calm   1.6 km/h 88% 0.0 mm 56 W/m2
08:20 14 °C 12 °C 1016.9 hPa East 3.2 km/h 3.2 km/h 88% 0.0 mm 63 W/m2
08:25 14.1 °C 12.1 °C 1016.9 hPa NNW 3.2 km/h 4.8 km/h 88% 0.0 mm 67 W/m2
08:30 14.1 °C 12.1 °C 1016.9 hPa West 3.2 km/h 4.8 km/h 88% 0.0 mm 72 W/m2
08:35 14.1 °C 12.1 °C 1016.9 hPa NNW 6.4 km/h 6.4 km/h 88% 0.0 mm 72 W/m2
08:40 14.2 °C 12.1 °C 1016.9 hPa ENE 3.2 km/h 6.4 km/h 87% 0.0 mm 77 W/m2
08:45 14.2 °C 12.1 °C 1016.9 hPa North 3.2 km/h 4.8 km/h 87% 0.0 mm 84 W/m2
08:50 14.2 °C 12.1 °C 1016.9 hPa West 3.2 km/h 4.8 km/h 87% 0.0 mm 95 W/m2
08:55 14.3 °C 12.2 °C 1016.9 hPa NNW 3.2 km/h 3.2 km/h 87% 0.0 mm 102 W/m2
09:00 14.3 °C 12.2 °C 1017.3 hPa ENE 4.7 km/h 4.8 km/h 87% 0.0 mm 104 W/m2
09:05 14.4 °C 12.3 °C 1017.3 hPa SW 3.2 km/h 4.8 km/h 87% 0.0 mm 114 W/m2
09:10 14.4 °C 12.3 °C 1017.3 hPa West 4.7 km/h   87% 0.0 mm 114 W/m2
09:15 °C °C 1017.3 hPa West 4.7 km/h   % 0.0 mm W/m2
09:22 14.8 °C 12.3 °C 1017.3 hPa WNW 1.4 km/h 6.4 km/h 85% 0.0 mm 172 W/m2
09:27 14.9 °C 12.4 °C 1017.3 hPa South 8 km/h 8 km/h 85% 0.0 mm 192 W/m2
09:32 15.1 °C 12.4 °C 1017.3 hPa NE 3.2 km/h 4.8 km/h 84% 0.0 mm 195 W/m2
09:37 15.1 °C 12.4 °C 1017.3 hPa NW 1.4 km/h 12.9 km/h 84% 0.0 mm 199 W/m2
09:42 15.2 °C 12.5 °C 1016.9 hPa North 3.2 km/h 3.2 km/h 84% 0.0 mm 211 W/m2
09:47 15.3 °C 12.6 °C 1016.9 hPa ENE 1.4 km/h 4.8 km/h 84% 0.0 mm 220 W/m2
09:52 15.5 °C 12.8 °C 1016.9 hPa Calm   1.6 km/h 84% 0.0 mm 227 W/m2
09:57 15.7 °C 12.8 °C 1016.9 hPa NNW 1.4 km/h 8 km/h 83% 0.0 mm 221 W/m2
10:02 15.7 °C 12.6 °C 1016.9 hPa ENE 7.9 km/h 8 km/h 82% 0.0 mm 251 W/m2
10:07 15.7 °C 12.6 °C 1016.9 hPa ESE 9.7 km/h 9.7 km/h 82% 0.0 mm 227 W/m2
10:12 15.7 °C 12.6 °C 1016.9 hPa NNE 4.7 km/h 4.8 km/h 82% 0.0 mm 236 W/m2
10:17 15.8 °C 12.7 °C 1016.9 hPa WNW 3.2 km/h 4.8 km/h 82% 0.0 mm 244 W/m2
10:22 15.9 °C 12.6 °C 1016.9 hPa West 4.7 km/h 4.8 km/h 81% 0.0 mm 234 W/m2
10:27 15.9 °C 12.6 °C 1016.9 hPa West 3.2 km/h 8 km/h 81% 0.0 mm 236 W/m2
10:32 16 °C 12.9 °C 1016.9 hPa NE 3.2 km/h 4.8 km/h 82% 0.0 mm 232 W/m2
10:37 16.2 °C 12.9 °C 1016.9 hPa NW 1.4 km/h 6.4 km/h 81% 0.0 mm 251 W/m2
10:42 16.3 °C 13 °C 1016.9 hPa ENE 4.7 km/h 6.4 km/h 81% 0.0 mm 255 W/m2
10:47 16.6 °C 12.9 °C 1016.9 hPa ESE 3.2 km/h 4.8 km/h 79% 0.0 mm 236 W/m2
10:52 16.7 °C 12.8 °C 1016.9 hPa ENE 3.2 km/h 4.8 km/h 78% 0.0 mm 269 W/m2
10:57 16.7 °C 12.8 °C 1016.9 hPa ENE 1.4 km/h 3.2 km/h 78% 0.0 mm 246 W/m2
11:02 16.7 °C 12.8 °C 1016.9 hPa WNW 1.4 km/h 3.2 km/h 78% 0.0 mm 190 W/m2
11:07 16.8 °C 12.9 °C 1016.9 hPa ENE 1.4 km/h 6.4 km/h 78% 0.0 mm 229 W/m2
11:12 16.8 °C 12.7 °C 1016.9 hPa North 1.4 km/h 6.4 km/h 77% 0.0 mm 248 W/m2
11:17 16.8 °C 12.7 °C 1016.9 hPa West 3.2 km/h 6.4 km/h 77% 0.0 mm 214 W/m2
11:23 16.9 °C 12.8 °C 1016.9 hPa East 3.2 km/h 4.8 km/h 77% 0.0 mm 260 W/m2
11:28 17 °C 12.9 °C 1016.9 hPa NNW 1.4 km/h 3.2 km/h 77% 0.0 mm 246 W/m2
11:33 17.1 °C 13.2 °C 1016.9 hPa Calm   6.4 km/h 78% 0.0 mm 265 W/m2
11:38 17.3 °C 13 °C 1016.9 hPa ESE 6.4 km/h 9.7 km/h 76% 0.0 mm 232 W/m2
11:43 17.3 °C 13 °C 1016.6 hPa SE 1.4 km/h 3.2 km/h 76% 0.0 mm 223 W/m2
11:48 17.3 °C 12.8 °C 1016.9 hPa Calm   4.8 km/h 75% 0.0 mm 176 W/m2
11:53 17.3 °C 12.8 °C 1016.6 hPa Calm   3.2 km/h 75% 0.0 mm 216 W/m2
11:58 17.3 °C 13 °C 1016.9 hPa Calm   3.2 km/h 76% 0.0 mm 220 W/m2
12:03 17.4 °C 12.9 °C 1016.6 hPa NE 3.2 km/h 11.3 km/h 75% 0.0 mm 234 W/m2
12:08 17.6 °C 12.9 °C 1016.6 hPa ESE 4.7 km/h 9.7 km/h 74% 0.0 mm 197 W/m2
12:13 17.7 °C 13.2 °C 1016.6 hPa West 1.4 km/h 11.3 km/h 75% 0.0 mm 176 W/m2
12:18 17.6 °C 13.1 °C 1016.6 hPa NNW 1.4 km/h 8 km/h 75% 0.0 mm 167 W/m2
12:23 17.6 °C 13.1 °C 1016.6 hPa NE 6.4 km/h 8 km/h 75% 0.0 mm 156 W/m2
12:28 17.5 °C 13 °C 1016.6 hPa WNW 3.2 km/h 8 km/h 75% 0.0 mm 229 W/m2
12:33 17.6 °C 13.1 °C 1016.6 hPa East 3.2 km/h 9.7 km/h 75% 0.0 mm 214 W/m2
12:38 17.6 °C 13.3 °C 1016.6 hPa NE 1.4 km/h 6.4 km/h 76% 0.0 mm 279 W/m2
12:43 17.9 °C 13.2 °C 1016.6 hPa NE 3.2 km/h 11.3 km/h 74% 0.0 mm 649 W/m2
12:48 18.2 °C 13.3 °C 1016.6 hPa North 3.2 km/h 6.4 km/h 73% 0.0 mm 199 W/m2
12:53 18.1 °C 13.4 °C 1016.6 hPa SW 3.2 km/h 6.4 km/h 74% 0.0 mm 221 W/m2
12:58 18.2 °C 13.5 °C 1016.6 hPa West 9.7 km/h 9.7 km/h 74% 0.0 mm 680 W/m2
13:03 18.2 °C 13.3 °C 1016.6 hPa West 13 km/h 12.9 km/h 73% 0.0 mm 279 W/m2
13:08 18 °C 13.3 °C 1016.6 hPa NW 9.7 km/h 11.3 km/h 74% 0.0 mm 199 W/m2
13:13 17.9 °C 13.2 °C 1016.6 hPa West 3.2 km/h 12.9 km/h 74% 0.0 mm 197 W/m2
13:18 17.9 °C 13.2 °C 1016.6 hPa SE 3.2 km/h 6.4 km/h 74% 0.0 mm 234 W/m2
13:23 17.8 °C 13.1 °C 1016.6 hPa WNW 1.4 km/h 12.9 km/h 74% 0.0 mm 255 W/m2
13:28 17.8 °C 12.9 °C 1016.3 hPa NNW 3.2 km/h 16.1 km/h 73% 0.0 mm 336 W/m2
13:33 17.9 °C 13.2 °C 1016.3 hPa NNW 7.9 km/h 12.9 km/h 74% 0.0 mm 352 W/m2
13:38 18 °C 13.1 °C 1016.3 hPa North 3.2 km/h 3.2 km/h 73% 0.0 mm 278 W/m2
13:43 18.2 °C 13.3 °C 1016.3 hPa North 4.7 km/h 12.9 km/h 73% 0.0 mm 269 W/m2
13:48 18.3 °C 13.4 °C 1016.3 hPa West 1.4 km/h 3.2 km/h 73% 0.0 mm 322 W/m2
13:53 18.4 °C 13.3 °C 1016.3 hPa Calm   11.3 km/h 72% 0.0 mm 432 W/m2
13:58 18.6 °C 13.5 °C 1016.3 hPa SW 4.7 km/h 9.7 km/h 72% 0.0 mm 464 W/m2
14:03 18.7 °C 13.3 °C 1016.3 hPa NW 3.2 km/h 11.3 km/h 71% 0.0 mm 388 W/m2
14:08 18.8 °C 13.4 °C 1016.3 hPa NW 1.4 km/h 6.4 km/h 71% 0.0 mm 601 W/m2
14:13 19 °C 13.4 °C 1016.3 hPa West 13 km/h 12.9 km/h 70% 0.0 mm 445 W/m2
14:18 19.2 °C 13.4 °C 1016.3 hPa West 9.7 km/h 11.3 km/h 69% 0.0 mm 357 W/m2
14:23 19 °C 13.4 °C 1016.3 hPa NNW 7.9 km/h 12.9 km/h 70% 0.0 mm 689 W/m2
14:28 19.2 °C 13.4 °C 1016.3 hPa NE 4.7 km/h 9.7 km/h 69% 0.0 mm 250 W/m2
14:33 19.4 °C 13.3 °C 1016.3 hPa North 6.4 km/h 12.9 km/h 68% 0.0 mm 786 W/m2
14:38 19.6 °C 13.3 °C 1016.3 hPa West 4.7 km/h 14.5 km/h 67% 0.0 mm 835 W/m2
14:43 19.6 °C 13.3 °C 1016.3 hPa West 6.4 km/h 9.7 km/h 67% 0.0 mm 708 W/m2
14:48 19.7 °C 13.6 °C 1016.3 hPa NE 4.7 km/h 14.5 km/h 68% 0.0 mm 775 W/m2
14:53 19.9 °C 13.6 °C 1015.9 hPa East 4.7 km/h 14.5 km/h 67% 0.0 mm 770 W/m2
14:58 20.1 °C 13.3 °C 1015.9 hPa West 9.7 km/h 11.3 km/h 65% 0.0 mm 512 W/m2
15:03 20.1 °C 13.3 °C 1015.9 hPa North 4.7 km/h 14.5 km/h 65% 0.0 mm 211 W/m2
15:08 20 °C 13.2 °C 1015.9 hPa East 11.1 km/h 11.3 km/h 65% 0.0 mm 613 W/m2
15:13 20.1 °C 13.3 °C 1015.6 hPa NNE 3.2 km/h 3.2 km/h 65% 0.0 mm 468 W/m2
15:18 20.3 °C 13.3 °C 1015.6 hPa NW 3.2 km/h 8 km/h 64% 0.0 mm 332 W/m2
15:23 20 °C 13 °C 1015.6 hPa ESE 3.2 km/h 6.4 km/h 64% 0.0 mm 260 W/m2
15:28 19.9 °C 13.4 °C 1015.6 hPa WNW 1.4 km/h 4.8 km/h 66% 0.0 mm 204 W/m2
15:33 19.8 °C 12.8 °C 1015.6 hPa ENE 6.4 km/h 11.3 km/h 64% 0.0 mm 116 W/m2
15:38 19.7 °C 12.9 °C 1015.2 hPa ESE 1.4 km/h 4.8 km/h 65% 0.0 mm 107 W/m2
15:43 19.5 °C 12.5 °C 1015.2 hPa NE 3.2 km/h 9.7 km/h 64% 0.0 mm 107 W/m2
15:48 19.4 °C 12.7 °C 1015.6 hPa East 1.4 km/h 8 km/h 65% 0.0 mm 109 W/m2
15:53 19.3 °C 12.8 °C 1015.2 hPa NW 1.4 km/h 4.8 km/h 66% 0.0 mm 107 W/m2
15:59 19.2 °C 12.9 °C 1015.2 hPa Calm   6.4 km/h 67% 0.0 mm 118 W/m2
16:04 19.2 °C 12.9 °C 1015.2 hPa North 1.4 km/h 4.8 km/h 67% 0.0 mm 137 W/m2
16:09 19.2 °C 12.9 °C 1015.2 hPa West 3.2 km/h 4.8 km/h 67% 0.0 mm 162 W/m2
16:14 19.2 °C 13.1 °C 1015.2 hPa WNW 13 km/h 12.9 km/h 68% 0.0 mm 174 W/m2
16:19 19.1 °C 13.1 °C 1015.2 hPa WNW 7.9 km/h 14.5 km/h 68% 0.0 mm 185 W/m2
16:24 19.1 °C 13.3 °C 1015.2 hPa WNW 6.4 km/h 9.7 km/h 69% 0.0 mm 216 W/m2
16:29 19.1 °C 13.3 °C 1015.2 hPa NNW 4.7 km/h 14.5 km/h 69% 0.0 mm 225 W/m2
16:34 19.1 °C 13.3 °C 1015.2 hPa NW 7.9 km/h 11.3 km/h 69% 0.0 mm 229 W/m2
16:39 19.1 °C 13.3 °C 1015.2 hPa North 14.5 km/h 14.5 km/h 69% 0.0 mm 227 W/m2
16:44 19.4 °C 13.6 °C 1015.2 hPa ENE 3.2 km/h 11.3 km/h 69% 0.0 mm 610 W/m2
16:49 19.6 °C 13.3 °C 1015.2 hPa NE 7.9 km/h 8 km/h 67% 0.0 mm 220 W/m2
16:54 19.6 °C 13.3 °C 1015.2 hPa NW 3.2 km/h 12.9 km/h 67% 0.0 mm 332 W/m2
16:59 19.6 °C 13.3 °C 1015.2 hPa West 3.2 km/h 3.2 km/h 67% 0.0 mm 193 W/m2
17:04 19.5 °C 13.4 °C 1015.2 hPa WNW 11.3 km/h 11.3 km/h 68% 0.0 mm 171 W/m2
17:09 19.5 °C 13.4 °C 1015.2 hPa ESE 3.2 km/h 11.3 km/h 68% 0.0 mm 155 W/m2
17:14 19.4 °C 13.3 °C 1015.2 hPa NNW 3.2 km/h 9.7 km/h 68% 0.0 mm 167 W/m2
17:19 19.3 °C 13.2 °C 1015.2 hPa West 1.4 km/h 8 km/h 68% 0.0 mm 195 W/m2
17:24 19.3 °C 13 °C 1014.9 hPa WNW 3.2 km/h 9.7 km/h 67% 0.0 mm 274 W/m2
17:29 19.4 °C 13.3 °C 1014.9 hPa South 4.7 km/h 6.4 km/h 68% 0.0 mm 318 W/m2
17:34 19.7 °C 13.2 °C 1014.9 hPa West 6.4 km/h 9.7 km/h 66% 0.0 mm 241 W/m2
17:39 19.7 °C 13.4 °C 1014.9 hPa ESE 1.4 km/h 9.7 km/h 67% 0.0 mm 253 W/m2
17:44 19.9 °C 13.4 °C 1014.9 hPa ESE 4.7 km/h 6.4 km/h 66% 0.0 mm 538 W/m2
17:49 20.3 °C 13.5 °C 1014.9 hPa ENE 4.7 km/h 14.5 km/h 65% 0.0 mm 519 W/m2
17:54 20.3 °C 13.3 °C 1014.9 hPa WNW 11.1 km/h 12.9 km/h 64% 0.0 mm 179 W/m2
17:59 19.8 °C 13 °C 1014.9 hPa West 1.4 km/h 14.5 km/h 65% 0.0 mm 144 W/m2
18:04 19.4 °C 12.9 °C 1014.9 hPa NE 3.2 km/h 12.9 km/h 66% 0.0 mm 142 W/m2
18:09 19.2 °C 12.9 °C 1014.9 hPa WNW 6.4 km/h 16.1 km/h 67% 0.0 mm 144 W/m2
18:14 19.1 °C 13.1 °C 1014.9 hPa WNW 1.4 km/h 6.4 km/h 68% 0.0 mm 149 W/m2
18:19 19.1 °C 13.1 °C 1014.9 hPa NW 1.4 km/h 8 km/h 68% 0.0 mm 146 W/m2
18:25 19.1 °C 13.1 °C 1014.9 hPa North 4.7 km/h 9.7 km/h 68% 0.0 mm 128 W/m2
18:30 19 °C 13 °C 1014.9 hPa NNW 4.7 km/h 12.9 km/h 68% 0.0 mm 118 W/m2
18:35 18.9 °C 12.9 °C 1014.9 hPa WNW 1.4 km/h 9.7 km/h 68% 0.0 mm 98 W/m2
18:40 18.8 °C 12.8 °C 1014.9 hPa NW 1.4 km/h 8 km/h 68% 0.0 mm 81 W/m2
18:45 18.8 °C 12.8 °C 1015.2 hPa NW 14.3 km/h 14.5 km/h 68% 0.0 mm 81 W/m2
18:50 18.7 °C 12.7 °C 1015.2 hPa NNW 3.2 km/h 4.8 km/h 68% 0.0 mm 67 W/m2
18:55 18.8 °C 12.8 °C 1015.2 hPa East 3.2 km/h 14.5 km/h 68% 0.0 mm 74 W/m2
19:00 18.7 °C 12.7 °C 1015.2 hPa ESE 3.2 km/h 11.3 km/h 68% 0.0 mm 42 W/m2
19:05 18.5 °C 12.5 °C 1015.2 hPa Calm   1.6 km/h 68% 0.0 mm 23 W/m2
19:10 18.2 °C 12.4 °C 1015.2 hPa SSE 1.4 km/h 9.7 km/h 69% 0.0 mm 21 W/m2
19:15 18 °C 12.2 °C 1015.2 hPa SE 3.2 km/h 3.2 km/h 69% 0.0 mm 16 W/m2
19:20 17.8 °C 12 °C 1015.2 hPa WSW 3.2 km/h 3.2 km/h 69% 0.0 mm 12 W/m2
19:25 17.7 °C 11.9 °C 1015.2 hPa Calm   1.6 km/h 69% 0.0 mm 11 W/m2
19:31 17.6 °C 11.6 °C 1015.2 hPa Calm   1.6 km/h 68% 0.0 mm 7 W/m2
19:36 17.6 °C 11.8 °C 1015.2 hPa NNE 1.4 km/h 1.6 km/h 69% 0.0 mm 5 W/m2
19:41 17.4 °C 11.7 °C 1015.2 hPa Calm   3.2 km/h 69% 0.0 mm 0 W/m2
19:46 17.3 °C 12 °C 1015.6 hPa Calm   4.8 km/h 71% 0.0 mm 0 W/m2
19:51 17.3 °C 13 °C 1015.6 hPa Calm     76% 0.2 mm 0 W/m2
19:56 17.1 °C 13.4 °C 1015.6 hPa Calm   3.2 km/h 79% 0.2 mm 0 W/m2
20:01 16.7 °C 13.2 °C 1015.9 hPa Calm     80% 0.5 mm 0 W/m2
20:06 16.2 °C 13.1 °C 1015.9 hPa Calm   1.6 km/h 82% 0.5 mm 0 W/m2
20:11 15.9 °C 13.2 °C 1016.3 hPa Calm   3.2 km/h 84% 0.5 mm 0 W/m2
20:16 15.7 °C 13.4 °C 1016.3 hPa Calm     86% 0.5 mm 0 W/m2
20:21 15.5 °C 13.3 °C 1015.9 hPa Calm   3.2 km/h 87% 0.5 mm 0 W/m2
20:26 15.3 °C 13.1 °C 1016.3 hPa NE 1.4 km/h 3.2 km/h 87% 0.8 mm 0 W/m2
20:31 15.1 °C 13 °C 1016.3 hPa Calm   3.2 km/h 87% 1.0 mm 0 W/m2
20:36 15 °C 12.9 °C 1016.3 hPa WSW 3.2 km/h 3.2 km/h 87% 1.3 mm 0 W/m2
20:41 14.9 °C 12.9 °C 1016.3 hPa West 4.7 km/h 4.8 km/h 88% 1.3 mm 0 W/m2
20:46 14.8 °C 13 °C 1016.3 hPa WNW 3.2 km/h 4.8 km/h 89% 1.5 mm 0 W/m2
20:51 14.6 °C 13 °C 1016.3 hPa WSW 4.7 km/h 6.4 km/h 90% 1.3 mm 0 W/m2
20:56 14.5 °C 12.9 °C 1016.3 hPa West 4.7 km/h 4.8 km/h 90% 1.3 mm 0 W/m2
21:01 14.4 °C 12.9 °C 1016.3 hPa West 1.4 km/h 1.6 km/h 91% 1.3 mm 0 W/m2
21:06 14.3 °C 12.9 °C 1016.3 hPa West 3.2 km/h 4.8 km/h 91% 1.3 mm 0 W/m2
21:11 14.2 °C 12.9 °C 1016.3 hPa West 3.2 km/h 4.8 km/h 92% 1.5 mm 0 W/m2
21:16 14.2 °C 12.9 °C 1016.3 hPa WNW 3.2 km/h 8 km/h 92% 1.5 mm 0 W/m2
21:21 14.1 °C 12.8 °C 1016.3 hPa West 4.7 km/h 8 km/h 92% 1.5 mm 0 W/m2
21:26 14.1 °C 12.8 °C 1016.3 hPa WSW 4.7 km/h 9.7 km/h 92% 1.3 mm 0 W/m2
21:31 14.1 °C 12.8 °C 1016.3 hPa WSW 4.7 km/h 8 km/h 92% 1.3 mm 0 W/m2
21:36 14.1 °C 12.8 °C 1016.3 hPa SW 4.7 km/h 6.4 km/h 92% 1.0 mm 0 W/m2
21:41 14 °C 12.7 °C 1016.3 hPa SSW 4.7 km/h 6.4 km/h 92% 1.0 mm 0 W/m2
21:46 14.1 °C 12.8 °C 1016.3 hPa West 4.7 km/h 8 km/h 92% 0.8 mm 0 W/m2
21:51 14 °C 12.7 °C 1016.3 hPa West 3.2 km/h 6.4 km/h 92% 0.8 mm 0 W/m2
21:56 14.1 °C 12.8 °C 1016.3 hPa WSW 6.4 km/h 8 km/h 92% 0.8 mm 0 W/m2
22:01 14.1 °C 12.8 °C 1016.3 hPa WSW 3.2 km/h 6.4 km/h 92% 0.5 mm 0 W/m2
22:07 14.1 °C 12.8 °C 1016.3 hPa WSW 4.7 km/h 8 km/h 92% 0.5 mm 0 W/m2
22:12 14.1 °C 12.8 °C 1016.3 hPa WSW 6.4 km/h 6.4 km/h 92% 0.5 mm 0 W/m2
22:17 14.1 °C 12.8 °C 1016.3 hPa West 4.7 km/h 6.4 km/h 92% 0.5 mm 0 W/m2
22:22 14.1 °C 12.8 °C 1016.3 hPa WSW 6.4 km/h 9.7 km/h 92% 0.2 mm 0 W/m2
22:27 14.2 °C 12.8 °C 1016.3 hPa SW 1.4 km/h 6.4 km/h 91% 0.2 mm 0 W/m2
22:32 14.2 °C 12.8 °C 1016.3 hPa West 3.2 km/h 6.4 km/h 91% 0.0 mm 0 W/m2
22:37 14.2 °C 12.8 °C 1016.3 hPa West 3.2 km/h 3.2 km/h 91% 0.0 mm 0 W/m2
22:42 14.1 °C 12.7 °C 1016.3 hPa WSW 4.7 km/h 6.4 km/h 91% 0.0 mm 0 W/m2
22:47 14.1 °C 12.7 °C 1016.3 hPa West 1.4 km/h 3.2 km/h 91% 0.0 mm 0 W/m2
22:52 14.1 °C 12.7 °C 1016.3 hPa Calm   3.2 km/h 91% 0.0 mm 0 W/m2
22:57 14.1 °C 12.7 °C 1016.3 hPa West 3.2 km/h 4.8 km/h 91% 0.0 mm 0 W/m2
23:02 14.1 °C 12.7 °C 1016.3 hPa West 1.4 km/h 3.2 km/h 91% 0.0 mm 0 W/m2
23:07 14 °C 12.6 °C 1016.3 hPa Calm   1.6 km/h 91% 0.0 mm 0 W/m2
23:12 14 °C 12.6 °C 1016.3 hPa Calm   1.6 km/h 91% 0.0 mm 0 W/m2
23:17 13.9 °C 12.5 °C 1016.3 hPa Calm     91% 0.0 mm 0 W/m2
23:22 13.9 °C 12.5 °C 1016.3 hPa West 1.4 km/h 3.2 km/h 91% 0.0 mm 0 W/m2
23:27 13.8 °C 12.5 °C 1016.3 hPa WSW 1.4 km/h 8 km/h 92% 0.0 mm 0 W/m2
23:32 13.9 °C 12.5 °C 1016.3 hPa NW 4.7 km/h 11.3 km/h 91% 0.0 mm 0 W/m2
23:37 14.1 °C 12.7 °C 1016.6 hPa SW 4.7 km/h 4.8 km/h 91% 0.0 mm 0 W/m2
23:42 14.2 °C 12.6 °C 1016.6 hPa WNW 3.2 km/h 9.7 km/h 90% 0.0 mm 0 W/m2
23:47 14.4 °C 12.6 °C 1016.6 hPa NW 6.4 km/h 8 km/h 89% 0.0 mm 0 W/m2
23:52 14.3 °C 12.5 °C 1016.6 hPa Calm   3.2 km/h 89% 0.0 mm 0 W/m2
23:57 14.3 °C 12.5 °C 1016.6 hPa Calm   3.2 km/h 89% 0.0 mm 0 W/m2
Juneau County Weather
Compliments of Weather Underground - 4 mb